Regional Weather Roundup
Issued by NWS Northern Indiana

Home | Current Version | Previous Version | Graphics & Text | Print | Product List | Glossary On
Versions: 1 2 3 4 5 6 7 8 9 10 11 12 13 14 15 16 17 18 19 20 21 22 23 24 25 26 27 28 29 30 31 32 33 34 35 36 37 38 39 40 41 42 43 44 45 46 47 48 49 50
000
ASUS43 KIWX 271510
RWRIWX

KIWX WEATHER ROUNDUP
NATIONAL WEATHER SERVICE NORTHERN INDIANA
1100 AM EDT WED MAY 27 2015

NOTE: "FAIR" INDICATES FEW OR NO CLOUDS BELOW 12,000 FEET WITH NO
SIGNIFICANT WEATHER AND/OR OBSTRUCTIONS TO VISIBILITY.

* THESE STATIONS ARE NOT UNDER NWS QUALITY CONTROL. THEY ALSO MAY NOT
  REPORT WEATHER SUCH AS PRECIPITATION OR FOG.

INZ001>027-271600-
NORTHERN INDIANA

CITY           SKY/WX    TMP DP  RH WIND       PRES   REMARKS
GARY*          PTSUNNY   73  61  64 W17G29    29.96
VALPARAISO     PTSUNNY   72  62  71 SW14G23   29.98S
MICHIGAN CITY* PTSUNNY   72  59  64 SW14G22   29.97S
LAPORTE*       MOSUNNY   74  64  71 SW16G22   29.99R
KNOX*          PTSUNNY   70  63  78 SW13      29.98S
SOUTH BEND     PTSUNNY   72  62  71 SW16G23   29.97F
ELKHART*       PTSUNNY   73  63  68 SW12G17   29.98F
GOSHEN         MOSUNNY   73  64  73 SW17      29.99S
MONTICELLO*    MOSUNNY   72  65  79 SW13      30.00F
LOGANSPORT*    PTSUNNY   73  61  64 SW12G24   30.02F
ROCHESTER*     MOSUNNY   73  68  83 W8G16     30.01S
WARSAW*        LGT RAIN  70  63  78 SW9G20    30.01R
ANGOLA*        MOSUNNY   73  66  78 W15       29.99S
FORT WAYNE     PTSUNNY   75  64  68 SW18      30.03S
HUNTINGTON*    PTSUNNY   74  63  67 SW14G22   30.02S
PERU/GRISSOM   MOSUNNY   75  65  69 W16       30.01S
MARION*        PTSUNNY   76  61  60 SW16      30.04F

$$
INZ028>050-271600-
CENTRAL INDIANA

CITY           SKY/WX    TMP DP  RH WIND       PRES   REMARKS
LAFAYETTE      PTSUNNY   73  64  73 SW10      30.01F
KOKOMO*        PTSUNNY   75  63  64 SW20G28   30.03S
MUNCIE*        SUNNY     75  63  66 SW14G21   30.06F
INDIANAPOLIS   MOSUNNY   77  62  59 SW16      30.05F

$$
MIZ043>046-050>051-056>058-064>065-071>073-077>080-271600-
SOUTHWEST LOWER MICHIGAN

CITY           SKY/WX    TMP DP  RH WIND       PRES   REMARKS
BATTLE CREEK   MOSUNNY   75  60  59 W24G32    29.95F
BENTON HARBOR  SUNNY     71  62  73 SW20G28   29.95S
COLDWATER*     MOSUNNY   73  62  68 SW12G21   29.97F
HILLSDALE*     PTSUNNY   74  65  73 SW10G16   29.99S
HOLLAND        MOSUNNY   69  61  75 SW21G30   29.94S
GRAND RAPIDS   PTSUNNY   71  60  68 SW26G36   29.92R
KALAMAZOO      PTSUNNY   74  61  63 SW15G23   29.95F
STURGIS*       MOSUNNY   73  63  68 SW17      29.97S
THREE RIVERS*  FAIR      73  60  63 SW12G21   29.96F

$$
OHZ001>008-015>018-024>025-271600-
NORTHWEST OHIO

CITY           SKY/WX    TMP DP  RH WIND       PRES   REMARKS
WAUSEON*       FAIR      75  66  73 SW17G25   30.00S
DEFIANCE       SUNNY     76  63  64 SW14G23   30.01S
FINDLAY        SUNNY     76  65  68 SW20      30.04S
TOLEDO EXPRESS SUNNY     75  62  64 SW18G25   30.00S
TOLEDO METCALF SUNNY     76  63  64 SW18G25   30.01S
LIMA           MOSUNNY   74  64  71 SW15G22   30.06S

$$
AND FOR LAKE MICHIGAN COASTAL AND OPEN LAKE BUOY OBSERVATIONS

STATION/POSITION TEMP    WIND        PRES    VSBY  WAVE
                 AIR SEA DIR/SP/G                  HT/PER
                 (F)     (DEG/KT/KT) (MB)    (MI)  (FT/S)
CALUMET HARBOR    71     240/  8/ 13   N/A
MICHIGAN CITY     65     220/ 17/ 19   N/A
BURNS HARBOR      70     230/ 13/ 19 1014.9S
SAINT JOSEPH      63     180/ 11/ 14 1015.6R
SOUTH LAKE BUOY   45 38  200/ 10/ 10 1013.9R         2/ 3
4 MI NW BRIDGMAN  59 55  260/ 10/ 12   N/A           2/ 3
MICHIGAN CITY     59 52  250/  8/ 10   N/A           1/ 3
MICHIGAN CITY CG     63              1015.8      6   1

$$
&&



USA.gov is the U.S. government's official web portal to all federal, state and local government web resources and services.